Back to Top

Language: 

My Weather Underground Personal Weather Station Historical Data with Graphs...

Delerius Weather Station Historical Data
Daily Summary for February 10, 2017 Units:  Metric    English   Both
« Previous Day
Next Day »
Daily Weekly Monthly Yearly Custom
  High: Low: Average:
Temperature: 2.4 °C 0.6 °C 1.2 °C
Dew Point: 1.2 °C -1 °C -0.1 °C
Humidity: 95 % 85 % 91 %
Wind Speed: 11.3 km/h 0 km/h 5 km/h
Wind Gust: 16.1 km/h - -
Wind:- - ESE
Pressure: 1027.3 hPa 1026.3 hPa -
Precipitation: 0.25 mm    
Historical Graphs
 
 
Tabular Data for February 10, 2017
Time Temperature Dew Point Pressure Wind Wind Speed Wind Gust Humidity Rainfall Rate (Hourly) solar Conditions
00:20 0.7 °C -0.1 °C 1027.3 hPa NE 4.8 km/h 4.8 km/h 94 % 0 mm 0 W/m2
00:35 0.7 °C 0 °C 1027.3 hPa NE 4.8 km/h 4.8 km/h 95 % 0 mm 0 W/m2
00:40 0.7 °C 0 °C 1027 hPa ENE 3.2 km/h 4.8 km/h 95 % 0 mm 0 W/m2
00:45 0.7 °C 0 °C 1027.3 hPa NE 1.6 km/h 4.8 km/h 95 % 0 mm 0 W/m2
00:55 0.7 °C -0.1 °C 1027 hPa ENE 1.6 km/h 3.2 km/h 95 % 0 mm 0 W/m2
01:05 0.7 °C -0.1 °C 1027.3 hPa NE 1.6 km/h 9.7 km/h 95 % 0 mm 0 W/m2
01:10 0.7 °C -0.1 °C 1027 hPa NE 1.6 km/h 9.7 km/h 95 % 0 mm 0 W/m2
01:15 0.7 °C -0.1 °C 1027 hPa NNE 3.2 km/h 9.7 km/h 95 % 0 mm 0 W/m2
01:20 0.7 °C -0.1 °C 1027.3 hPa NE 3.2 km/h 3.2 km/h 95 % 0 mm 0 W/m2
01:25 0.7 °C -0.1 °C 1027.3 hPa NE 3.2 km/h 6.4 km/h 95 % 0 mm 0 W/m2
01:35 0.7 °C -0.1 °C 1027 hPa NE 3.2 km/h 9.7 km/h 95 % 0 mm 0 W/m2
01:40 0.7 °C -0.1 °C 1027 hPa NE 4.8 km/h 4.8 km/h 95 % 0 mm 0 W/m2
01:45 0.7 °C -0.1 °C 1027.3 hPa NE 3.2 km/h 9.7 km/h 95 % 0 mm 0 W/m2
01:50 0.7 °C -0.1 °C 1027.3 hPa NE 3.2 km/h 9.7 km/h 95 % 0 mm 0 W/m2
01:55 0.7 °C -0.1 °C 1027 hPa ENE 3.2 km/h 9.7 km/h 95 % 0 mm 0 W/m2
02:00 0.7 °C -0.1 °C 1027.3 hPa ENE 1.6 km/h 1.6 km/h 95 % 0 mm 0 W/m2
02:10 0.7 °C -0.1 °C 1027.3 hPa ENE 1.6 km/h 9.7 km/h 95 % 0 mm 0 W/m2
02:15 0.7 °C -0.1 °C 1027.3 hPa ENE 1.6 km/h 9.7 km/h 95 % 0 mm 0 W/m2
02:20 0.7 °C -0.1 °C 1027 hPa NE 3.2 km/h 9.7 km/h 95 % 0 mm 0 W/m2
02:25 0.7 °C -0.1 °C 1027 hPa NE 3.2 km/h 9.7 km/h 95 % 0 mm 0 W/m2
02:35 0.7 °C -0.1 °C 1027 hPa ENE 1.6 km/h 9.7 km/h 95 % 0 mm 0 W/m2
02:40 0.6 °C -0.1 °C 1027 hPa NE 3.2 km/h 3.2 km/h 95 % 0 mm 0 W/m2
02:45 0.6 °C -0.1 °C 1027 hPa ENE 3.2 km/h 9.7 km/h 95 % 0 mm 0 W/m2
02:55 0.6 °C -0.1 °C 1027 hPa ENE 1.6 km/h 4.8 km/h 95 % 0 mm 0 W/m2
03:00 0.6 °C -0.1 °C 1026.6 hPa ENE 1.6 km/h 9.7 km/h 95 % 0 mm 0 W/m2
03:05 0.6 °C -0.1 °C 1026.6 hPa ENE 1.6 km/h 9.7 km/h 95 % 0 mm 0 W/m2
03:10 0.6 °C -0.1 °C 1026.6 hPa ENE 3.2 km/h 9.7 km/h 95 % 0 mm 0 W/m2
03:20 0.6 °C -0.1 °C 1026.6 hPa NE 6.4 km/h 6.4 km/h 95 % 0 mm 0 W/m2
03:25 0.6 °C -0.1 °C 1026.6 hPa ENE 6.4 km/h 8 km/h 95 % 0 mm 0 W/m2
03:30 0.6 °C -0.1 °C 1026.6 hPa NE 4.8 km/h 9.7 km/h 95 % 0 mm 0 W/m2
03:35 0.6 °C -0.1 °C 1026.6 hPa ENE 4.8 km/h 9.7 km/h 95 % 0 mm 0 W/m2
03:40 0.6 °C -0.1 °C 1026.6 hPa ENE 4.8 km/h 11.3 km/h 95 % 0 mm 0 W/m2
03:50 0.6 °C -0.1 °C 1026.6 hPa ENE 4.8 km/h 4.8 km/h 95 % 0 mm 0 W/m2
03:55 0.6 °C -0.1 °C 1026.6 hPa NNE 4.8 km/h 6.4 km/h 95 % 0 mm 0 W/m2
04:00 0.6 °C -0.2 °C 1026.6 hPa NE 3.2 km/h 9.7 km/h 94 % 0 mm 0 W/m2
04:05 0.6 °C -0.2 °C 1026.6 hPa ENE 3.2 km/h 9.7 km/h 94 % 0 mm 0 W/m2
04:10 0.6 °C -0.2 °C 1026.6 hPa ENE 3.2 km/h 3.2 km/h 94 % 0 mm 0 W/m2
04:20 0.6 °C -0.1 °C 1026.6 hPa NE 1.6 km/h 1.6 km/h 95 % 0 mm 0 W/m2
04:25 0.6 °C -0.2 °C 1026.6 hPa NE 1.6 km/h 9.7 km/h 94 % 0 mm 0 W/m2
04:30 0.6 °C -0.2 °C 1026.6 hPa ENE 1.6 km/h 9.7 km/h 94 % 0 mm 0 W/m2
04:35 0.6 °C -0.2 °C 1026.6 hPa ENE 1.6 km/h 9.7 km/h 94 % 0 mm 0 W/m2
04:40 0.6 °C -0.2 °C 1026.6 hPa ENE 1.6 km/h 9.7 km/h 94 % 0 mm 0 W/m2
04:45 0.6 °C -0.2 °C 1026.6 hPa Calm   9.7 km/h 94 % 0 mm 0 W/m2
04:55 0.6 °C -0.2 °C 1026.6 hPa Calm   3.2 km/h 94 % 0 mm 0 W/m2
05:00 0.6 °C -0.2 °C 1026.3 hPa Calm   9.7 km/h 94 % 0 mm 0 W/m2
05:05 0.6 °C -0.2 °C 1026.3 hPa ENE 1.6 km/h 9.7 km/h 94 % 0 mm 0 W/m2
05:10 0.6 °C -0.2 °C 1026.6 hPa ENE 1.6 km/h 1.6 km/h 94 % 0 mm 0 W/m2
05:15 0.6 °C -0.2 °C 1026.6 hPa ENE 1.6 km/h 9.7 km/h 94 % 0 mm 0 W/m2
05:25 0.6 °C -0.3 °C 1026.6 hPa NNE 1.6 km/h 9.7 km/h 94 % 0 mm 0 W/m2
05:30 0.6 °C -0.2 °C 1026.6 hPa NE 1.6 km/h 9.7 km/h 94 % 0 mm 0 W/m2
05:35 0.6 °C -0.3 °C 1026.6 hPa NE 1.6 km/h 9.7 km/h 94 % 0 mm 0 W/m2
05:40 0.6 °C -0.3 °C 1026.6 hPa NE 1.6 km/h 9.7 km/h 94 % 0 mm 0 W/m2
05:45 0.6 °C -0.2 °C 1026.6 hPa NE 3.2 km/h 9.7 km/h 94 % 0 mm 0 W/m2
05:50 0.6 °C -0.2 °C 1026.6 hPa NE 3.2 km/h 9.7 km/h 94 % 0 mm 0 W/m2
06:00 0.6 °C -0.2 °C 1026.6 hPa NE 4.8 km/h 9.7 km/h 94 % 0 mm 0 W/m2
06:05 0.6 °C -0.2 °C 1026.6 hPa NE 4.8 km/h 9.7 km/h 94 % 0 mm 0 W/m2
06:10 0.6 °C -0.2 °C 1026.6 hPa NE 4.8 km/h 4.8 km/h 94 % 0 mm 0 W/m2
06:15 0.6 °C -0.2 °C 1026.6 hPa ENE 3.2 km/h 8 km/h 94 % 0 mm 0 W/m2
06:20 0.6 °C -0.2 °C 1026.3 hPa NE 1.6 km/h 9.7 km/h 94 % 0 mm 0 W/m2
06:30 0.6 °C -0.2 °C 1026.3 hPa NE 4.8 km/h 4.8 km/h 94 % 0 mm 0 W/m2
06:35 0.6 °C -0.2 °C 1026.6 hPa NE 1.6 km/h 9.7 km/h 94 % 0 mm 0 W/m2
06:40 0.6 °C -0.2 °C 1026.6 hPa Calm   9.7 km/h 94 % 0 mm 0 W/m2
06:45 0.6 °C -0.2 °C 1026.6 hPa NNE 1.6 km/h 9.7 km/h 94 % 0 mm 0 W/m2
06:50 0.6 °C -0.3 °C 1026.6 hPa NNE 1.6 km/h 9.7 km/h 94 % 0 mm 0 W/m2
06:55 0.6 °C -0.2 °C 1026.6 hPa NNE 1.6 km/h 9.7 km/h 94 % 0 mm 0 W/m2
07:05 0.6 °C -0.2 °C 1026.6 hPa NNE 3.2 km/h 9.7 km/h 94 % 0 mm 0 W/m2
07:10 0.6 °C -0.4 °C 1026.6 hPa NNE 4.8 km/h 4.8 km/h 93 % 0 mm 0 W/m2
07:15 0.7 °C -0.3 °C 1026.6 hPa NNE 6.4 km/h 6.4 km/h 93 % 0 mm 0 W/m2
07:20 0.7 °C -0.3 °C 1026.6 hPa NE 6.4 km/h 6.4 km/h 93 % 0 mm 0 W/m2
07:25 0.7 °C -0.3 °C 1026.6 hPa NE 3.2 km/h 9.7 km/h 93 % 0 mm 0 W/m2
07:35 0.7 °C -0.3 °C 1026.6 hPa NE 1.6 km/h 9.7 km/h 93 % 0 mm 0 W/m2
07:40 0.7 °C -0.3 °C 1026.6 hPa NE 1.6 km/h 1.6 km/h 93 % 0 mm 0 W/m2
07:45 0.7 °C -0.3 °C 1027 hPa Calm   9.7 km/h 93 % 0 mm 0 W/m2
07:50 0.7 °C -0.3 °C 1027 hPa Calm   9.7 km/h 93 % 0 mm 0 W/m2
07:55 0.7 °C -0.3 °C 1027 hPa Calm   9.7 km/h 93 % 0 mm 0 W/m2
08:00 0.7 °C -0.3 °C 1026.6 hPa North 3.2 km/h 11.3 km/h 93 % 0 mm 7 W/m2
08:10 0.7 °C -0.4 °C 1027 hPa NE 4.8 km/h 4.8 km/h 92 % 0 mm 5 W/m2
08:15 0.8 °C -0.4 °C 1027 hPa NNE 4.8 km/h 12.9 km/h 92 % 0 mm 12 W/m2
08:20 0.8 °C -0.5 °C 1027 hPa NE 4.8 km/h 9.7 km/h 91 % 0 mm 16 W/m2
08:25 0.8 °C -0.5 °C 1027 hPa NE 4.8 km/h 9.7 km/h 91 % 0 mm 18 W/m2
08:30 0.8 °C -0.4 °C 1027 hPa NE 4.8 km/h 9.7 km/h 91 % 0 mm 30 W/m2
08:40 0.9 °C -0.4 °C 1027 hPa NE 4.8 km/h 9.7 km/h 91 % 0 mm 40 W/m2
08:45 0.9 °C -0.4 °C 1027 hPa ENE 4.8 km/h 9.7 km/h 91 % 0 mm 37 W/m2
08:50 0.9 °C -0.3 °C 1027 hPa NE 4.8 km/h 9.7 km/h 91 % 0 mm 39 W/m2
08:55 1 °C -0.3 °C 1027 hPa NE 3.2 km/h 9.7 km/h 91 % 0 mm 37 W/m2
09:00 1.1 °C -0.1 °C 1027 hPa NE 3.2 km/h 9.7 km/h 92 % 0 mm 51 W/m2
09:05 1.1 °C -0.2 °C 1027 hPa ENE 4.8 km/h 9.7 km/h 91 % 0 mm 47 W/m2
09:15 1.1 °C -0.2 °C 1027 hPa NE 4.8 km/h 9.7 km/h 91 % 0 mm 62 W/m2
09:20 1.2 °C -0.2 °C 1027 hPa NE 4.8 km/h 4.8 km/h 91 % 0 mm 76 W/m2
09:25 1.2 °C -0.1 °C 1027 hPa ENE 4.8 km/h 6.4 km/h 91 % 0 mm 98 W/m2
09:35 1.3 °C -0.1 °C 1027 hPa NNE 6.4 km/h 9.7 km/h 91 % 0 mm 77 W/m2
09:40 1.3 °C -0.1 °C 1027 hPa ENE 8 km/h 8 km/h 91 % 0 mm 62 W/m2
09:45 1.3 °C 0 °C 1027 hPa NE 6.4 km/h 9.7 km/h 91 % 0 mm 88 W/m2
09:55 1.4 °C 0.1 °C 1027 hPa NE 4.8 km/h 11.3 km/h 91 % 0 mm 67 W/m2
10:00 1.4 °C 0.1 °C 1027 hPa NE 3.2 km/h 3.2 km/h 91 % 0 mm 63 W/m2
10:05 1.5 °C 0.1 °C 1027 hPa NNE 4.8 km/h 4.8 km/h 90 % 0 mm 62 W/m2
10:10 1.6 °C 0.1 °C 1027 hPa NE 4.8 km/h 4.8 km/h 90 % 0 mm 37 W/m2
10:15 1.6 °C 0.1 °C 1027 hPa ENE 3.2 km/h 9.7 km/h 90 % 0 mm 42 W/m2
10:20 1.6 °C 0.1 °C 1027 hPa ENE 4.8 km/h 9.7 km/h 90 % 0 mm 33 W/m2
10:25 1.5 °C 0.1 °C 1027 hPa NE 6.4 km/h 9.7 km/h 90 % 0 mm 39 W/m2
10:30 1.5 °C 0.1 °C 1027 hPa ENE 8 km/h 8 km/h 90 % 0 mm 23 W/m2
10:35 1.5 °C 0.1 °C 1027 hPa ENE 8 km/h 9.7 km/h 90 % 0 mm 51 W/m2
10:40 1.6 °C 0.1 °C 1027.3 hPa ENE 6.4 km/h 6.4 km/h 90 % 0 mm 60 W/m2
10:50 1.6 °C 0.3 °C 1027.3 hPa ENE 6.4 km/h 9.7 km/h 91 % 0 mm 76 W/m2
10:55 1.6 °C 0.3 °C 1027.3 hPa ENE 8 km/h 9.7 km/h 91 % 0 mm 90 W/m2
11:00 1.7 °C 0.3 °C 1027 hPa NE 6.4 km/h 9.7 km/h 91 % 0 mm 95 W/m2
11:05 1.7 °C 0.4 °C 1027 hPa ESE 4.8 km/h 9.7 km/h 91 % 0 mm 109 W/m2
11:10 1.8 °C 0.4 °C 1027 hPa NE 4.8 km/h 4.8 km/h 91 % 0 mm 148 W/m2
11:20 2 °C 0.7 °C 1027 hPa NNE 4.8 km/h 9.7 km/h 91 % 0 mm 60 W/m2
11:25 2.1 °C 0.6 °C 1027.3 hPa ESE 6.4 km/h 9.7 km/h 90 % 0 mm 98 W/m2
11:30 2 °C 0.6 °C 1027.3 hPa NE 9.7 km/h 9.7 km/h 90 % 0 mm 56 W/m2
11:35 1.9 °C 0.4 °C 1027.3 hPa NNE 11.3 km/h 11.3 km/h 90 % 0 mm 37 W/m2
11:45 1.5 °C 0.2 °C 1027.3 hPa ENE 9.7 km/h 11.3 km/h 91 % 0 mm 60 W/m2
11:50 1.4 °C 0.3 °C 1027 hPa NNE 6.4 km/h 6.4 km/h 92 % 0 mm 107 W/m2
11:55 1.4 °C 0.4 °C 1027 hPa NE 4.8 km/h 11.3 km/h 93 % 0 mm 102 W/m2
12:00 1.4 °C 0.4 °C 1027 hPa NE 6.4 km/h 6.4 km/h 93 % 0 mm 86 W/m2
12:05 1.5 °C 0.5 °C 1027 hPa East 6.4 km/h 9.7 km/h 93 % 0 mm 95 W/m2
12:10 1.6 °C 0.6 °C 1027 hPa ENE 4.8 km/h 9.7 km/h 93 % 0 mm 67 W/m2
12:15 1.6 °C 0.6 °C 1027 hPa NE 6.4 km/h 9.7 km/h 93 % 0 mm 70 W/m2
12:20 1.6 °C 0.6 °C 1027 hPa NE 6.4 km/h 6.4 km/h 93 % 0 mm 44 W/m2
12:30 1.6 °C 0.6 °C 1027 hPa North 4.8 km/h 4.8 km/h 93 % 0 mm 90 W/m2
12:35 1.6 °C 0.6 °C 1027 hPa East 3.2 km/h 9.7 km/h 93 % 0 mm 81 W/m2
12:40 1.7 °C 0.7 °C 1027 hPa NE 6.4 km/h 9.7 km/h 93 % 0 mm 69 W/m2
12:45 1.7 °C 0.7 °C 1027 hPa NE 8 km/h 9.7 km/h 93 % 0 mm 139 W/m2
12:50 1.7 °C 0.7 °C 1027 hPa NE 6.4 km/h 9.7 km/h 93 % 0 mm 179 W/m2
13:00 2 °C 1 °C 1026.6 hPa ENE 4.8 km/h 4.8 km/h 93 % 0 mm 134 W/m2
13:05 2.1 °C 1.1 °C 1026.6 hPa ENE 1.6 km/h 9.7 km/h 93 % 0 mm 162 W/m2
13:10 2.2 °C 1.2 °C 1026.6 hPa North 3.2 km/h 9.7 km/h 93 % 0 mm 171 W/m2
13:15 2.2 °C 1.1 °C 1026.6 hPa NNE 6.4 km/h 9.7 km/h 92 % 0 mm 142 W/m2
13:20 2.3 °C 1.1 °C 1026.6 hPa ENE 6.4 km/h 6.4 km/h 92 % 0 mm 90 W/m2
13:30 2.3 °C 0.9 °C 1026.6 hPa NE 6.4 km/h 6.4 km/h 91 % 0 mm 95 W/m2
13:40 2.2 °C 0.7 °C 1026.6 hPa East 6.4 km/h 6.4 km/h 90 % 0 mm 199 W/m2
13:45 2.1 °C 0.7 °C 1026.6 hPa East 8 km/h 16.1 km/h 90 % 0 mm 127 W/m2
13:50 2.1 °C 0.6 °C 1026.6 hPa ENE 8 km/h 9.7 km/h 90 % 0 mm 128 W/m2
13:55 2.1 °C 0.7 °C 1026.6 hPa ENE 6.4 km/h 9.7 km/h 90 % 0 mm 120 W/m2
14:00 2.2 °C 0.9 °C 1026.6 hPa NE 4.8 km/h 12.9 km/h 91 % 0 mm 47 W/m2
14:10 2.3 °C 0.9 °C 1026.6 hPa ENE 8 km/h 8 km/h 91 % 0 mm 171 W/m2
14:15 2.3 °C 1 °C 1026.6 hPa ENE 6.4 km/h 9.7 km/h 91 % 0 mm 197 W/m2
14:20 2.4 °C 0.9 °C 1026.6 hPa NNE 8 km/h 9.7 km/h 90 % 0 mm 84 W/m2
14:25 2.4 °C 0.9 °C 1026.6 hPa ENE 9.7 km/h 12.9 km/h 90 % 0 mm 35 W/m2
14:30 2.3 °C 0.7 °C 1026.6 hPa NE 11.3 km/h 14.5 km/h 89 % 0 mm 46 W/m2
14:40 2.1 °C 0.5 °C 1026.6 hPa East 8 km/h 8 km/h 89 % 0 mm 62 W/m2
14:45 2.1 °C 0.7 °C 1026.6 hPa NE 6.4 km/h 9.7 km/h 90 % 0 mm 83 W/m2
14:50 2.1 °C 0.5 °C 1026.3 hPa NNE 6.4 km/h 6.4 km/h 89 % 0 mm 86 W/m2
14:55 2.1 °C 0.5 °C 1026.3 hPa NNE 4.8 km/h 9.7 km/h 89 % 0 mm 93 W/m2
15:00 2.2 °C 0.6 °C 1026.6 hPa ENE 4.8 km/h 9.7 km/h 89 % 0 mm 91 W/m2
15:05 2.2 °C 0.6 °C 1026.6 hPa NE 4.8 km/h 9.7 km/h 89 % 0 mm 90 W/m2
15:15 2.3 °C 0.7 °C 1026.6 hPa ENE 6.4 km/h 9.7 km/h 89 % 0 mm 65 W/m2
15:20 2.3 °C 0.7 °C 1026.3 hPa NNE 6.4 km/h 6.4 km/h 89 % 0 mm 63 W/m2
15:25 2.3 °C 0.7 °C 1026.6 hPa ENE 6.4 km/h 9.7 km/h 89 % 0 mm 54 W/m2
15:30 2.3 °C 0.7 °C 1026.6 hPa NE 8 km/h 8 km/h 89 % 0 mm 28 W/m2
15:35 2.3 °C 0.7 °C 1026.6 hPa ENE 8 km/h 16.1 km/h 89 % 0 mm 33 W/m2
15:45 2.3 °C 0.7 °C 1026.6 hPa NE 8 km/h 9.7 km/h 89 % 0 mm 21 W/m2
15:50 2.3 °C 0.7 °C 1026.6 hPa North 6.4 km/h 6.4 km/h 89 % 0 mm 11 W/m2
15:55 2.2 °C 0.6 °C 1026.6 hPa NNE 8 km/h 12.9 km/h 89 % 0 mm 12 W/m2
16:00 2.1 °C 0.4 °C 1026.6 hPa ENE 9.7 km/h 11.3 km/h 89 % 0 mm 11 W/m2
16:05 1.9 °C 0.4 °C 1026.6 hPa NE 8 km/h 11.3 km/h 90 % 0 mm 9 W/m2
16:10 1.7 °C 0.3 °C 1026.6 hPa NE 8 km/h 16.1 km/h 90 % 0 mm 11 W/m2
16:20 1.6 °C 0.2 °C 1026.6 hPa NNW 4.8 km/h 9.7 km/h 91 % 0 mm 14 W/m2
16:25 1.6 °C 0.2 °C 1026.6 hPa NNE 3.2 km/h 9.7 km/h 91 % 0 mm 16 W/m2
16:30 1.5 °C 0.2 °C 1026.6 hPa NE 3.2 km/h 3.2 km/h 91 % 0 mm 12 W/m2
16:35 1.5 °C 0.2 °C 1026.6 hPa NNE 1.6 km/h 9.7 km/h 91 % 0 mm 11 W/m2
16:40 1.5 °C 0.2 °C 1026.6 hPa NE 3.2 km/h 3.2 km/h 91 % 0 mm 9 W/m2
16:50 1.5 °C 0.1 °C 1026.6 hPa East 3.2 km/h 3.2 km/h 90 % 0 mm 7 W/m2
16:55 1.5 °C 0.1 °C 1026.6 hPa NNE 3.2 km/h 8 km/h 90 % 0 mm 7 W/m2
17:05 1.5 °C 0.1 °C 1026.6 hPa NE 3.2 km/h 9.7 km/h 90 % 0 mm 0 W/m2
17:10 1.5 °C 0.1 °C 1026.6 hPa North 4.8 km/h 9.7 km/h 90 % 0 mm 0 W/m2
17:15 1.4 °C -0.2 °C 1026.6 hPa NNE 6.4 km/h 9.7 km/h 89 % 0 mm 0 W/m2
17:20 1.4 °C -0.2 °C 1026.6 hPa NNE 6.4 km/h 9.7 km/h 89 % 0 mm 0 W/m2
17:30 1.4 °C -0.2 °C 1026.6 hPa NE 6.4 km/h 6.4 km/h 89 % 0 mm 0 W/m2
17:35 1.4 °C -0.2 °C 1026.6 hPa NNW 8 km/h 9.7 km/h 89 % 0 mm 0 W/m2
17:40 1.4 °C -0.2 °C 1026.6 hPa NE 4.8 km/h 9.7 km/h 89 % 0 mm 0 W/m2
17:45 1.4 °C -0.2 °C 1027 hPa ENE 4.8 km/h 9.7 km/h 89 % 0 mm 0 W/m2
17:50 1.4 °C -0.4 °C 1027 hPa NE 4.8 km/h 4.8 km/h 88 % 0 mm 0 W/m2
17:55 1.4 °C -0.4 °C 1027 hPa NNE 4.8 km/h 6.4 km/h 88 % 0 mm 0 W/m2
18:00 1.4 °C -0.4 °C 1027 hPa NNE 3.2 km/h 3.2 km/h 88 % 0 mm 0 W/m2
18:05 1.4 °C -0.3 °C 1027 hPa NNE 3.2 km/h 6.4 km/h 88 % 0 mm 0 W/m2
18:10 1.4 °C -0.3 °C 1027 hPa NNE 4.8 km/h 9.7 km/h 88 % 0 mm 0 W/m2
18:20 1.4 °C -0.6 °C 1027 hPa NNE 3.2 km/h 3.2 km/h 87 % 0 mm 0 W/m2
18:30 1.4 °C -0.6 °C 1027 hPa Calm   9.7 km/h 87 % 0 mm 0 W/m2
18:40 1.4 °C -0.6 °C 1027 hPa NE 3.2 km/h 3.2 km/h 87 % 0 mm 0 W/m2
18:50 1.3 °C -0.6 °C 1027 hPa NE 3.2 km/h 6.4 km/h 87 % 0 mm 0 W/m2
19:00 1.3 °C -0.8 °C 1027 hPa NNW 8 km/h 8 km/h 86 % 0 mm 0 W/m2
19:10 1.3 °C -0.6 °C 1027 hPa NW 4.8 km/h 4.8 km/h 87 % 0 mm 0 W/m2
19:15 1.3 °C -0.7 °C 1027.3 hPa NNW 4.8 km/h 4.8 km/h 87 % 0 mm 0 W/m2
19:20 1.3 °C -0.7 °C 1027.3 hPa North 3.2 km/h 3.2 km/h 87 % 0 mm 0 W/m2
19:25 1.3 °C -0.7 °C 1027.3 hPa North 3.2 km/h 8 km/h 87 % 0 mm 0 W/m2
19:35 1.3 °C -0.7 °C 1027.3 hPa NNW 6.4 km/h 8 km/h 87 % 0 mm 0 W/m2
19:40 1.2 °C -0.7 °C 1027.3 hPa NNW 6.4 km/h 11.3 km/h 87 % 0 mm 0 W/m2
19:45 1.2 °C -0.7 °C 1027.3 hPa NNW 4.8 km/h 11.3 km/h 87 % 0 mm 0 W/m2
19:50 1.2 °C -0.7 °C 1027.3 hPa NNE 4.8 km/h 4.8 km/h 87 % 0 mm 0 W/m2
19:55 1.2 °C -0.7 °C 1027.3 hPa North 4.8 km/h 11.3 km/h 87 % 0 mm 0 W/m2
20:05 1.3 °C -0.8 °C 1027.3 hPa North 9.7 km/h 12.9 km/h 86 % 0 mm 0 W/m2
20:10 1.3 °C -0.8 °C 1027.3 hPa NNW 8 km/h 12.9 km/h 86 % 0 mm 0 W/m2
20:15 1.3 °C -0.8 °C 1027.3 hPa NNE 6.4 km/h 12.9 km/h 86 % 0 mm 0 W/m2
20:20 1.3 °C -0.8 °C 1027.3 hPa NNE 4.8 km/h 14.5 km/h 86 % 0 mm 0 W/m2
20:25 1.3 °C -0.8 °C 1027 hPa NNE 6.4 km/h 14.5 km/h 86 % 0 mm 0 W/m2
20:30 1.3 °C -0.8 °C 1027.3 hPa NNW 4.8 km/h 12.9 km/h 86 % 0 mm 0 W/m2
20:40 1.3 °C -0.9 °C 1027 hPa NW 8 km/h 8 km/h 85 % 0 mm 0 W/m2
20:45 1.3 °C -0.9 °C 1027 hPa NNW 8 km/h 11.3 km/h 85 % 0 mm 0 W/m2
20:50 1.3 °C -0.9 °C 1027 hPa NNW 6.4 km/h 12.9 km/h 85 % 0 mm 0 W/m2
20:55 1.3 °C -0.9 °C 1027 hPa NNE 6.4 km/h 12.9 km/h 85 % 0 mm 0 W/m2
21:00 1.2 °C -1 °C 1027 hPa NNW 6.4 km/h 12.9 km/h 85 % 0 mm 0 W/m2
21:05 1.3 °C -0.9 °C 1027 hPa North 8 km/h 12.9 km/h 85 % 0 mm 0 W/m2
21:10 1.3 °C -0.9 °C 1027 hPa NNW 8 km/h 8 km/h 85 % 0 mm 0 W/m2
21:20 1.3 °C -0.9 °C 1027 hPa NW 6.4 km/h 6.4 km/h 85 % 0 mm 0 W/m2
21:25 1.3 °C -0.9 °C 1027 hPa NNE 4.8 km/h 11.3 km/h 85 % 0 mm 0 W/m2
21:30 1.3 °C -0.9 °C 1027 hPa North 6.4 km/h 12.9 km/h 85 % 0 mm 0 W/m2
21:40 1.3 °C -0.9 °C 1027 hPa NNE 9.7 km/h 12.9 km/h 85 % 0 mm 0 W/m2
21:45 1.3 °C -0.9 °C 1027.3 hPa NNW 8 km/h 12.9 km/h 85 % 0 mm 0 W/m2
21:55 1.4 °C -0.8 °C 1027 hPa NNW 8 km/h 12.9 km/h 85 % 0 mm 0 W/m2
22:00 1.3 °C -0.9 °C 1027 hPa NNW 4.8 km/h 4.8 km/h 85 % 0 mm 0 W/m2
22:05 1.3 °C -0.8 °C 1027 hPa NNW 4.8 km/h 12.9 km/h 86 % 0 mm 0 W/m2
22:10 1.3 °C -0.8 °C 1027 hPa NW 4.8 km/h 4.8 km/h 86 % 0 mm 0 W/m2
22:20 1.2 °C -0.7 °C 1027 hPa NNW 6.4 km/h 12.9 km/h 87 % 0 mm 0 W/m2
22:30 1.2 °C -0.7 °C 1027 hPa NW 6.4 km/h 14.5 km/h 87 % 0 mm 0 W/m2
22:35 1.2 °C -0.7 °C 1027 hPa NNW 8 km/h 14.5 km/h 87 % 0 mm 0 W/m2
22:40 1.2 °C -0.7 °C 1027 hPa NNW 6.4 km/h 12.9 km/h 87 % 0 mm 0 W/m2
22:45 1.2 °C -0.7 °C 1027 hPa NW 6.4 km/h 12.9 km/h 87 % 0 mm 0 W/m2
22:50 1.2 °C -0.7 °C 1026.6 hPa NNW 8 km/h 8 km/h 87 % 0 mm 0 W/m2
23:00 1.2 °C -0.7 °C 1026.6 hPa NNW 6.4 km/h 12.9 km/h 87 % 0 mm 0 W/m2
23:10 1.3 °C -0.7 °C 1026.6 hPa North 6.4 km/h 12.9 km/h 87 % 0 mm 0 W/m2
23:15 1.3 °C -0.7 °C 1026.6 hPa NNW 4.8 km/h 16.1 km/h 87 % 0 mm 0 W/m2
23:20 1.3 °C -0.7 °C 1026.6 hPa NNW 8 km/h 12.9 km/h 87 % 0 mm 0 W/m2
23:25 1.3 °C -0.8 °C 1026.6 hPa NW 11.3 km/h 12.9 km/h 86 % 0 mm 0 W/m2
23:35 1.4 °C -0.7 °C 1026.6 hPa North 8 km/h 12.9 km/h 86 % 0 mm 0 W/m2
23:40 1.4 °C -0.7 °C 1026.3 hPa NNW 8 km/h 12.9 km/h 86 % 0 mm 0 W/m2
23:45 1.4 °C -0.8 °C 1026.3 hPa NNW 9.7 km/h 12.9 km/h 85 % 0 mm 0 W/m2
23:50 1.4 °C -0.8 °C 1026.3 hPa NW 9.7 km/h 12.9 km/h 85 % 0 mm 0 W/m2
23:55 1.5 °C -0.7 °C 1026.3 hPa NNE 6.4 km/h 12.9 km/h 85 % 0 mm 0 W/m2
Delerius-Weather
Compliments of Weather Underground - 2 mb

Data updates at regular intervals.